Regional Weather Roundup
Issued by NWS Midland/Odessa, TX

Skip options and go directly to product.
Home | Oldest Version | Previous Version | Current Version | All | Text Only | Save Text | Print | Product List | Glossary On

Skip product version selection by date and time.   
016
ASUS44 KMAF 011410
RWRMAF
MIDLAND AREA WEATHER ROUNDUP
NATIONAL WEATHER SERVICE MIDLAND TX
800 AM CST SUN FEB 01 2015

...IN SOUTHWEST TEXAS AND SOUTHEAST NEW MEXICO...

CITY           SKY/WX    TMP DP  RH WIND       PRES   REMARKS
ALPINE         PTCLDY    43  37  82 SW12      30.06R WCI  36
ANDREWS        FOG       42  42 100 NW6       30.00R VSB<1/4 WCI  39
ARTESIA        FOG       39  39 100 N12       30.02R VSB<1/4 WCI  32
BIG SPRING     CLOUDY    47  46  93 W6        30.01R
CARLSBAD       LGT RAIN  40  39  97 N10       29.98R VSB 1/4 WCI  33
DRYDEN           N/A     47  44  90 SW9       29.94R
FORT STOCKTON  CLEAR     45  41  86 SW12      29.98R WCI  39
GUAD PASS      PTCLDY    38  37  97 W10       30.02R FOG     WCI  31
HOBBS          CLEAR     37  37 100 NW12      29.99R WCI  30
MARFA          PTCLDY    30  28  93 CALM      30.04R
MIDLAND AIRPK  FOG       46  46 100 NW7       30.00R VSB 1/2
MIDLAND INTL   FOG       44  43  96 N8        29.98R VSB 1/4 WCI  39
ODESSA         FOG       43  41  93 NW5       29.98R VSB 1/4
PECOS          CLEAR     38  37  97 NW3       29.99R
PRESIDIO       FAIR      45  41  86 N6        30.00R
SEMINOLE       CLEAR     39  39 100 N8        30.01R WCI  34
SNYDER         MOCLDY   N/A N/A N/A NW6       29.99R
WINK           FOG       41  38  89 N8        29.97R VSB 1/4 WCI  36
$$
...OTHER STATIONS IN TEXAS...

CITY           SKY/WX    TMP DP  RH WIND       PRES   REMARKS
ABILENE        CLOUDY    52  49  89 W9        29.95R
AMARILLO       CLOUDY    36  31  82 N21G26    30.05R WCI  25
AUSTIN         CLOUDY    61  60  97 S9        29.91R
BROWNSVILLE    PTCLDY    65  62  90 S13       29.91R
CORPUS CHRISTI MOCLDY    58  57  97 E3        29.92R
DALLAS FTW     CLOUDY    57  56  96 W8        29.88R
DEL RIO        CLOUDY    56  54  93 CALM      29.94R FOG
EL PASO        PTCLDY    44  39  82 S8        30.00R WCI  39
HOUSTON INT    MOCLDY    64  62  93 S7        29.94R FOG
LUBBOCK        PTCLDY    38  36  92 N14       29.99R WCI  30
SAN ANGELO     PTCLDY    47  45  93 W6        29.95R
SAN ANTONIO    FOG       61  60  97 S7        29.92R VSB 1/16
WACO           MOCLDY    59  58  96 S12       29.88R
WICHITA FALLS  NOT AVBL
$$
...OTHER LOCATIONS IN NEW MEXICO...

CITY           SKY/WX    TMP DP  RH WIND       PRES   REMARKS
ALAMAGORDO     PTCLDY    43  39  87 N9        30.01S WCI  37
ALBUQUERQUE    PTCLDY    33  29  85 CALM      30.08R
CANNON AFB     NOT AVBL
CLOVIS         PTCLDY    34  30  86 N18       30.03R WCI  23
HOLLOMAN AFB   PTCLDY    40  40 100 N9        30.01R WCI  34
ROSWELL        CLEAR     37  35  92 N7        30.01R WCI  32
RUIDOSO        CLEAR     32  30  93 W12       30.05R WCI  23
SANTA FE       FOG       26  23  88 N9        30.06R VSB 1/2 WCI  17
TRUTH OR CONSE CLEAR     35  34  96 N5        30.04R WCI  31
TUCUMCARI      CLOUDY    36  32  85 NE10      30.05R WCI  28
$$

USA.gov is the U.S. government's official web portal to all federal, state and local government web resources and services.